Regional Weather Roundup
Issued by NWS

Home | Current Version | Previous Version | Text Only | Print | Product List | Glossary On
Versions: 1 2 3 4 5 6 7 8 9 10 11 12 13 14 15 16 17 18 19 20 21 22 23 24 25 26 27 28 29 30 31 32 33 34 35 36 37 38 39 40 41 42 43 44 45 46 47 48 49 50
339
ASUS43 KOAX 070702
RWRNE

WEATHER ROUNDUP FOR NEBRASKA
NATIONAL WEATHER SERVICE OMAHA NE
100 AM CST SUN FEB 07 2016

NOTES: SATELLITE DATA IS BEING USED TO AUGMENT CLOUD COVER ABOVE
       12000 FEET.
       "FAIR" INDICATES FEW OR NO CLOUDS BELOW 12,000 FEET WITH NO
       SIGNIFICANT WEATHER AND/OR OBSTRUCTIONS TO VISIBILITY.

  * THESE STATIONS DO NOT REPORT WEATHER SUCH AS RAIN...SNOW OR FOG.

NEZ001>004-019>022-054>056-070800-
NEBRASKA PANHANDLE

CITY           SKY/WX    TMP DP  RH WIND       PRES   REMARKS
SCOTTSBLUFF    CLEAR     32  22  66 NW10      30.14R WCI  24
ALLIANCE       CLEAR     27  19  72 NW16      30.09S WCI  15
CHADRON        CLOUDY    34  23  64 W13       30.11R WCI  25
KIMBALL        CLOUDY    32  23  70 N17       30.13R WCI  21
SIDNEY         CLOUDY    30  22  72 NW7       30.14S WCI  23
$$

NEZ057>060-069>072-079>082-070800-
SOUTHWEST NEBRASKA

CITY           SKY/WX    TMP DP  RH WIND       PRES   REMARKS
NORTH PLATTE   CLOUDY    35  25  66 W15       30.06S WCI  25
IMPERIAL       CLOUDY    34  24  67 NW10      30.11S WCI  26
MCCOOK         CLOUDY    32  25  75 W7        30.10R WCI  26
$$

NEZ005>010-023>029-035>040-094-070800-
NORTH CENTRAL NEBRASKA

CITY           SKY/WX    TMP DP  RH WIND       PRES   REMARKS
VALENTINE      CLEAR     38  23  55 NW13      30.02R WCI  30
AINSWORTH      CLEAR     38  25  58 NW14      30.01R WCI  30
BROKEN BOW     CLOUDY    37  27  67 NW17      30.01R WCI  27
ORD            CLOUDY    35  27  72 NW12      29.99R WCI  27
$$

NEZ041-046>049-061>064-073>077-083>087-070800-
SOUTH CENTRAL NEBRASKA

CITY           SKY/WX    TMP DP  RH WIND       PRES   REMARKS
GRAND ISLAND   PTCLDY    34  26  72 W14       29.98R WCI  25
HASTINGS       CLOUDY    34  26  72 W14       29.99R WCI  25
HEBRON         CLOUDY    36  28  74 W9        30.00R WCI  29
$$

NEZ011>018-030>034-042>045-070800-
NORTHEAST NEBRASKA

CITY           SKY/WX    TMP DP  RH WIND       PRES   REMARKS
NORFOLK        CLOUDY    34  27  75 W12       29.91S WCI  25
COLUMBUS *     CLEAR     30  19  64 W6        29.93F WCI  24
FREMONT        CLOUDY    33  26  73 W8        29.93R WCI  26
TEKAMAH        CLOUDY    30  24  78 SW5       29.91F WCI  25
$$

NEZ050>053-065>068-078-088>093-070800-
SOUTHEAST NEBRASKA

CITY           SKY/WX    TMP DP  RH WIND       PRES   REMARKS
LINCOLN        CLOUDY    36  27  69 W6        29.97R WCI  31
OMAHA EPPLEY   CLOUDY    39  28  64 VRB3      29.94S
BEATRICE       CLOUDY    35  28  77 W7        29.97S WCI  29
FALLS CITY     MOCLDY    37  27  67 SW10      29.96F WCI  30
$$

NEZ044-045-051>053-067-070800-
OMAHA AREA

CITY           SKY/WX    TMP DP  RH WIND       PRES   REMARKS
OMAHA EPPLEY   CLOUDY    39  28  64 VRB3      29.94S
FREMONT        CLOUDY    33  26  73 W8        29.93R WCI  26
OFFUTT AFB     CLOUDY    36  28  73 W6        29.93F WCI  31
$$




USA.gov is the U.S. government's official web portal to all federal, state and local government web resources and services.